EHI
5 6 6 5 4 4 6 6 6 3 1 4 7 6 3 2 1 1 1 0 0 0 0 0 0 0 0 0 0 0 0 0 0 0 0 0 0 0
4 5 6 5 3 4 6 8 7 5 2 3 5 4 2 1 0 1 1 1 1 0 0 0 0 0 0 0 0 0 0 0 0 0 0 0 0 0
5 5 6 6 5 5 6 8 8 6 3 2 3 2 1 0 0 0 1 2 1 0 0 0 0 0 0 0 0 0 0 0 0 0 0 0 0 0
6 6 6 7 7 6 4 4 5 4 2 1 1 1 1 0 0 0 1 1 1 0 0 0 0 0 0 0 0 0 0 0 0 0 0 0 0 0
6 5 6 7 6 4 2 1 1 1 0 0 0 1 1 1 0 0 0 0 0 0 0 0 0 0 0 0 0 0 0 0 0 0 0 0 0 0
4 3 3 4 4 3 1 0 0 0 0 0 0 1 1 1 1 1 1 0 0 0 0 0 0 0 0 0 0 0 0 0 0 0 0 0 0 0
2 2 1 1 1 1 0 0 0 0 0 0 0 0 0 0 1 1 1 0 0 0 0 0 0 0 0 0 0 0 0 0 0 0 0 0 0 0
1 1 0 0 0 0 0 0 0 0 0 0 0 0 0 0 0 0 0 0 0 0 0 0 0 0 0 0 0 0 0 0 0 0 0 0 0 0
0 0 0 0 0 0 0 0 0 0 0 0 0 0 0 0 0 0 0 0 0 0 0 0 0 0 0 0 0 0 0 0 0 0 0 0 0 0
0 0 0 0 0 0 0 0 0 0 0 0 0 0 0 0 0 0 0 0 0 0 0 0 0 0 0 0 0 0 0 0 0 0 0 0 0 0
0 0 0 0 0 0 0 0 0 1 1 0 0 0 0 0 0 0 0 0 0 0 0 0 0 0 0 0 0 0 0 0 0 0 0 0 0 0
0 0 0 0 0 0 0 0 1 2 2 1 0 0 0 0 0 0 0 0 0 0 0 0 0 0 0 0 0 0 0 0 0 0 0 0 0 0
0 0 0 0 0 0 0 0 1 2 3 2 0 0 0 0 0 0 0 0 0 0 0 0 0 0 0 0 0 0 0 0 0 0 0 0 0 0
0 0 0 0 0 0 0 0 1 1 2 1 0 0 0 0 0 0 0 0 0 0 0 0 0 0 0 0 0 0 0 0 0 0 0 0 0 0
0 0 0 0 0 0 0 0 0 0 0 0 0 0 0 0 0 0 0 0 0 0 0 0 0 0 0 0 0 0 0 0 0 0 0 0 0 0
0 0 0 0 0 0 0 0 0 0 0 0 0 0 0 0 0 0 0 0 0 0 0 0 0 0 0 0 0 0 0 0 0 0 0 0 0 0
0 0 0 0 0 0 0 0 0 0 0 0 0 0 0 0 0 0 0 0 0 0 0 0 0 0 0 0 0 0 0 0 0 0 0 0 0 0
0 0 0 0 0 0 0 0 0 0 0 0 0 0 0 0 0 0 0 0 0 0 0 0 0 0 0 0 0 0 0 0 0 0 0 0 0 0
0 0 0 0 0 0 0 0 0 0 0 0 0 0 0 0 0 0 0 0 0 0 0 0 0 0 0 0 0 0 0 0 0 0 0 0 0 0
0 0 0 0 0 0 0 0 0 0 0 0 0 0 0 0 0 0 0 0 0 0 0 0 0 0 0 0 0 0 0 0 0 0 0 0 0 0
0 0 0 0 0 0 0 0 0 0 0 0 0 0 0 0 0 0 0 0 0 0 0 0 0 0 0 0 0 0 0 0 0 0 0 0 0 0
0 0 0 0 0 0 0 0 0 0 0 0 0 0 0 0 0 0 0 0 0 0 0 0 0 0 0 0 0 0 0 0 0 0 0 0 0 0
0 0 0 0 0 0 0 0 0 0 0 0 0 0 0 0 0 0 0 0 0 0 0 0 0 0 0 0 0 0 0 0 0 0 0 0 0 0
Wind_Speed
3 4 3 2 3 3 3 4 4 4 3 2 1 1 1 1 2 2 3 7 6 5 5 4 4 4 3 3 2 2 2 2 1 1 1 1 1 1
2 2 2 3 2 3 3 3 4 3 3 1 0 0 1 1 4 3 4 8 8 6 6 6 6 6 5 5 5 4 3 3 2 2 2 1 1 1
1 1 2 3 2 2 2 2 2 2 3 2 0 1 1 2 2 2 3 3 5 9 9 8 8 8 8 8 7 7 6 5 5 4 4 4 4 3
1 1 1 1 2 2 1 2 2 2 2 2 1 1 1 2 2 2 3 4 5 10 10 9 9 9 9 9 9 9 8 8 8 7 6 6 5 5
2 2 2 2 2 2 2 2 1 0 1 2 1 1 1 1 2 2 3 3 4 6 8 9 9 10 10 10 10 9 8 8 8 8 7 7 7 6
4 4 4 4 3 2 1 1 1 1 1 2 2 1 1 1 1 1 2 2 2 3 5 5 7 8 10 10 10 9 8 7 7 7 8 8 8 7
5 6 7 8 9 7 4 4 2 1 1 1 1 1 1 1 1 0 1 2 3 2 2 3 3 4 5 7 8 8 8 8 8 8 8 8 8 8
5 6 6 8 9 10 11 10 8 4 3 2 2 2 1 1 0 0 1 1 1 2 2 3 3 3 4 5 8 7 7 7 7 7 7 7 7 7
5 5 5 6 6 6 8 8 9 8 6 4 3 3 2 1 1 1 1 1 2 1 1 2 2 2 3 6 7 6 5 5 5 5 5 6 6 6
6 6 6 6 5 4 6 7 7 7 6 5 4 4 4 3 1 1 2 3 3 2 1 1 1 1 2 4 6 4 4 3 3 4 4 4 3 3
6 6 5 5 6 4 5 6 6 6 7 7 6 5 5 5 4 1 1 2 2 2 1 0 1 1 1 2 4 6 5 4 4 3 3 2 1 1
5 6 8 7 6 6 4 5 5 5 5 5 5 3 4 4 3 3 2 1 1 2 2 1 0 0 1 2 2 3 4 6 5 4 3 1 2 2
4 4 6 7 7 6 4 5 3 2 3 4 4 4 4 4 4 4 4 4 3 3 3 2 1 1 1 1 1 1 1 1 2 4 5 4 2 3
4 5 6 6 7 6 5 4 3 3 2 3 4 4 4 5 5 5 5 5 5 4 3 3 2 2 2 1 1 1 1 1 1 1 0 5 5 4
6 8 6 4 4 6 6 3 2 1 3 3 4 4 4 4 3 3 4 3 3 4 4 4 4 3 3 2 2 2 1 1 1 2 2 1 1 1
6 7 6 3 3 4 3 2 3 4 3 3 3 3 3 3 3 3 2 2 2 3 3 2 2 3 3 3 2 2 1 1 1 1 3 2 2 2
3 4 4 4 3 3 3 3 3 2 2 3 3 3 3 3 3 3 2 2 2 2 2 1 1 1 2 3 2 2 2 2 1 1 3 3 2 2
1 3 3 3 3 3 2 2 2 2 2 2 2 2 2 2 2 2 2 3 3 3 3 2 2 2 2 2 1 3 3 2 2 2 4 4 3 2
2 3 3 3 2 2 1 2 2 2 2 1 2 2 2 2 1 2 2 2 2 3 3 3 3 4 5 3 1 1 3 4 4 4 4 4 4 3
2 2 2 2 2 1 1 1 1 2 1 1 1 1 2 2 2 2 2 3 3 3 3 3 3 4 5 6 5 3 4 4 4 5 5 5 5 3
2 2 1 1 1 1 1 1 1 1 1 1 1 1 2 2 2 3 2 1 4 4 4 3 3 3 6 5 5 4 3 4 4 5 7 7 6 5
2 1 1 1 1 1 1 1 1 0 1 1 1 1 2 3 3 4 4 3 3 4 5 4 2 4 5 5 6 6 5 4 5 10 10 8 7 8
2 2 2 2 2 1 1 1 1 1 1 2 2 2 3 3 4 4 4 4 4 5 6 5 5 4 5 6 6 6 7 6 6 5 6 10 14 13
Wind_Direction
246 244 248 254 257 256 250 250 255 260 264 238 184 84 74 71 76 85 76 84 80 70 63 56 52 49 46 46 48 42 39 44 30 11 295 300 274 223
260 271 268 264 268 261 259 262 262 263 271 299 271 82 43 63 96 86 87 90 79 75 70 63 59 54 53 49 45 45 47 51 47 45 49 65 64 78
272 260 269 288 292 284 269 262 259 241 239 265 216 112 92 55 73 73 79 77 79 73 72 69 64 61 58 56 51 48 49 51 53 53 63 72 76 77
358 351 324 316 318 318 310 285 273 247 217 220 199 140 102 80 76 69 65 69 77 78 76 74 71 68 63 59 55 52 50 50 52 53 57 65 70 71
37 26 3 350 347 352 334 326 319 210 162 174 175 92 86 75 84 89 80 69 79 100 94 85 78 73 66 61 58 55 52 52 53 54 56 60 62 63
43 38 25 15 5 4 24 26 35 93 129 146 137 110 91 84 69 106 104 86 63 60 71 83 91 86 75 67 61 58 55 54 55 58 61 62 61 59
57 55 53 52 45 34 34 37 39 46 83 103 108 93 66 63 21 340 103 119 87 54 72 72 83 79 84 76 66 62 63 66 66 67 67 66 64 63
67 65 71 70 71 68 60 53 43 41 47 60 72 73 53 18 347 125 111 130 85 37 44 59 52 63 70 67 66 68 68 71 74 75 74 71 69 66
67 63 65 68 69 79 88 87 69 54 42 43 58 40 44 28 348 83 72 59 64 60 31 71 57 63 79 83 83 75 72 73 75 79 80 73 65 60
72 68 69 65 53 55 80 79 72 59 49 55 57 42 36 14 352 84 127 131 122 94 344 62 69 64 85 100 114 106 100 91 87 84 79 71 63 62
73 64 62 72 39 23 82 86 82 84 83 76 65 63 54 33 4 29 105 131 114 101 50 355 108 96 106 109 135 155 148 136 123 110 96 72 357 265
90 82 64 55 34 17 72 83 84 76 79 94 97 101 83 75 43 14 5 31 76 91 66 314 50 237 135 96 89 130 149 155 162 160 160 160 321 297
94 88 75 57 48 35 42 68 53 32 90 91 89 82 78 68 58 48 22 9 13 43 42 345 10 347 350 72 82 69 66 104 155 166 178 186 218 293
84 86 86 75 66 51 57 44 341 303 85 80 74 66 60 58 58 53 48 44 36 42 25 351 354 346 333 338 36 72 60 20 350 342 346 176 200 213
81 77 89 102 117 93 70 22 332 50 67 71 70 66 63 57 59 80 90 88 88 68 49 5 347 344 322 335 354 10 10 21 336 324 321 306 287 236
113 119 127 105 94 90 110 85 56 43 40 64 69 70 71 70 49 34 38 46 58 80 80 44 358 334 331 343 329 335 336 325 326 338 324 302 284 282
133 139 132 125 112 96 89 75 68 74 65 60 62 64 63 60 50 35 12 2 15 22 32 39 16 313 309 307 322 332 325 321 332 358 290 288 287 287
196 129 121 116 108 99 95 95 85 65 56 56 56 49 46 47 40 29 9 0 6 8 7 2 344 311 259 160 336 318 318 323 325 304 288 295 296 292
177 121 116 113 108 103 92 79 81 79 47 38 39 33 21 12 8 7 359 350 352 351 351 346 337 330 323 329 146 219 314 315 302 297 295 297 296 300
152 120 121 119 112 98 96 84 81 89 81 27 25 11 358 343 343 337 350 349 335 330 326 330 339 337 326 324 318 286 234 282 302 303 304 301 295 276
148 142 138 129 128 126 107 94 72 59 23 316 353 341 329 322 329 325 330 338 299 310 320 332 2 295 286 287 286 289 283 217 250 284 298 297 297 291
160 159 145 151 169 183 181 187 190 194 213 258 328 322 314 311 313 311 317 313 303 309 314 315 307 284 286 291 297 299 297 293 246 230 245 265 293 305
180 184 181 188 184 194 204 202 227 261 293 308 314 310 308 307 305 305 303 300 303 304 302 301 301 295 293 291 290 293 295 293 291 282 258 220 224 240